Preview of NWS' New Version of Forecast
This preview is not operational and should not be used for support decisions.

Regional Weather Roundup (RWR)

Issued by National Weather Service (NWS)

                            
000
ASUS46 KPQR 201310
RWROR 

OREGON REGIONAL WEATHER ROUNDUP
NATIONAL WEATHER SERVICE PORTLAND OR
500 AM PST WED FEB 20 2019

NOTE: "FAIR" INDICATES FEW OR NO CLOUDS BELOW 12,000 FEET WITH
NO SIGNIFICANT WEATHER AND/OR OBSTRUCTIONS TO VISIBILITY.

ORZ001>013-201400-
NORTHWEST OREGON

  
CITY           SKY/WX    TMP DP  RH WIND       PRES   REMARKS
ASTORIA        RAIN      40  37  89 W7        29.86F FOG              
TILLAMOOK      DRIZZLE   37  36  93 SE6       29.91F                  
NEWPORT        LGT RAIN  43  37  81 NW12G24   29.96F                  
PORTLAND       CLOUDY    39  39 100 CALM      29.89S                  
VANCOUVER WA   LGT RAIN  37  35  92 CALM      29.88F                  
SCAPPOOSE      MOCLDY    36  34  92 CALM      29.87F                  
HILLSBORO      MOCLDY    36  35  96 SW3         N/A                   
AURORA         CLOUDY    37  36  96 S3        29.90F                  
MCMINNVILLE    PTCLDY    35  34  96 SW8       29.89F                  
SALEM          MOCLDY    39  34  82 SW7       29.90F                  
CORVALLIS      LGT RAIN  39  36  89 NW6       29.94F                  
EUGENE         CLOUDY    39  35  86 SW6       29.94F                  
$$

ORZ021-028-201400-
SOUTHWEST OREGON

  
CITY           SKY/WX    TMP DP  RH WIND       PRES   REMARKS
NORTH BEND     CLOUDY    44  36  73 NW13      30.01F                  
BROOKINGS      CLOUDY    41  37  86 N6        30.01F                  
ROSEBURG       CLOUDY    39  37  92 CALM      29.97S                  
SEXTON SUMMIT  SNOW      28  26  92 CALM      29.85S VSB 1/2          
GRANTS PASS    CLOUDY    34  34 100 CALM      29.99  FOG              
MEDFORD        CLOUDY    34  32  92 S5        29.93F                  
$$

ORZ014>016-041-201400-
COLUMBIA GORGE

  
CITY           SKY/WX    TMP DP  RH WIND       PRES   REMARKS
TROUTDALE      LGT RAIN  39  35  86 SW9       29.88F                  
HOOD RIVER     PTCLDY    36  32  87 NW5       29.80S                  
THE DALLES     MOCLDY    38  31  76 NW13      29.79S WCI  30          
$$

ORZ029>031-041-044-049-050-061>064-502-503-505>511-201400-
EASTERN OREGON

  
CITY           SKY/WX    TMP DP  RH WIND       PRES   REMARKS
MADRAS         NOT AVBL                                               
REDMOND        MOCLDY    30  25  81 W6        29.74S                  
BEND           MOCLDY    30  25  80 NW8       29.73F                  
PRINEVILLE     MOCLDY    28  25  86 W5        29.74                   
KLAMATH FALLS  MOCLDY    28  25  88 NW5       29.79F                  
LAKEVIEW       FLURRIES  25  21  86 S9        29.74S                  
HERMISTON      CLOUDY    29  23  78 NE10      29.78R WCI  20          
PENDLETON      LGT SNOW  26  23  88 N17       29.72R FOG     WCI  13  
JOHN DAY       CLOUDY    29  27  90 W5        29.68                   
MEACHAM        HVY SNOW  28  24  85 VRB6      29.60F VSB 1/4          
LA GRANDE      LGT SNOW  28  27  96 SE7       29.67S FOG              
BAKER CITY     LGT SNOW  27  24  89 CALM      29.65F FOG              
BURNS          CLOUDY    25  22  88 W3        29.67F                  
ROME             N/A     29  24  82 SW12      29.66F WCI  19          
ONTARIO        LGT SNOW  32  29  88 NE3       29.72F FOG              
$$